GFSNW_500_temp_057.txt.gz
Temp
-21 -22 -22 -22 -22 -22 -22 -21 -19 -18 -20 -21 -19 -14 -13 -15 -16 -16 -16 -16 -16 -15 -15 -15 -14 -14 -14 -15 -15 -14 -15 -15 -15 -16 -16 -16 -16 -16 -16 -16 -16 -15 -15 -15
-22 -22 -22 -22 -22 -22 -22 -22 -20 -19 -21 -21 -18 -15 -15 -15 -16 -16 -16 -17 -16 -16 -16 -15 -15 -15 -15 -15 -15 -14 -15 -15 -15 -16 -16 -16 -16 -16 -16 -17 -17 -16 -15 -15
-24 -23 -22 -22 -23 -23 -23 -23 -22 -22 -22 -19 -18 -16 -14 -14 -16 -17 -16 -17 -17 -16 -17 -16 -16 -15 -15 -15 -15 -15 -16 -15 -15 -15 -16 -17 -17 -17 -17 -17 -16 -16 -15 -15
-25 -24 -23 -22 -23 -23 -23 -22 -22 -22 -20 -19 -17 -16 -15 -16 -16 -16 -17 -17 -18 -17 -17 -17 -17 -16 -15 -15 -15 -15 -16 -15 -16 -16 -16 -17 -17 -17 -17 -16 -16 -15 -15 -15
-25 -24 -23 -23 -23 -23 -23 -22 -22 -21 -21 -19 -19 -16 -14 -15 -16 -17 -17 -17 -18 -18 -18 -17 -18 -16 -16 -16 -15 -15 -15 -16 -16 -16 -16 -17 -17 -16 -17 -17 -17 -16 -15 -15
-25 -24 -23 -23 -23 -23 -22 -21 -22 -21 -21 -21 -19 -16 -16 -15 -16 -17 -17 -18 -19 -20 -18 -18 -18 -17 -16 -16 -16 -15 -15 -16 -17 -16 -17 -17 -16 -16 -17 -17 -17 -17 -16 -16
-25 -24 -23 -23 -23 -22 -21 -21 -22 -21 -21 -21 -19 -18 -17 -16 -16 -18 -18 -19 -20 -19 -19 -18 -19 -18 -17 -16 -16 -16 -16 -17 -16 -17 -17 -16 -16 -17 -17 -17 -17 -17 -16 -16
-25 -24 -24 -23 -23 -23 -22 -22 -22 -22 -21 -21 -21 -19 -18 -17 -17 -19 -19 -19 -20 -20 -19 -19 -18 -18 -17 -16 -17 -17 -18 -17 -17 -17 -16 -16 -15 -16 -17 -17 -16 -16 -16 -16
-25 -24 -24 -23 -23 -23 -23 -23 -22 -22 -23 -21 -21 -20 -19 -18 -18 -19 -19 -20 -21 -20 -20 -19 -18 -18 -17 -17 -17 -17 -17 -17 -17 -17 -16 -15 -16 -17 -17 -17 -15 -17 -16 -16
-25 -24 -24 -24 -23 -23 -23 -23 -22 -23 -24 -22 -21 -20 -19 -19 -19 -19 -20 -20 -21 -21 -20 -19 -18 -18 -18 -17 -17 -18 -17 -18 -17 -16 -16 -15 -16 -17 -17 -16 -17 -16 -16 -16
-24 -24 -24 -24 -24 -23 -23 -23 -23 -24 -24 -23 -22 -21 -20 -20 -20 -20 -20 -21 -21 -21 -19 -19 -19 -18 -18 -18 -17 -17 -17 -17 -16 -16 -16 -15 -17 -17 -16 -17 -16 -16 -16 -16
-24 -24 -24 -24 -24 -24 -23 -23 -23 -25 -25 -24 -23 -22 -21 -21 -21 -21 -20 -20 -20 -20 -20 -19 -19 -19 -18 -18 -18 -17 -17 -17 -17 -17 -16 -16 -17 -17 -17 -17 -17 -17 -17 -16
-24 -24 -24 -24 -24 -24 -23 -23 -23 -24 -26 -25 -23 -22 -22 -21 -21 -21 -20 -20 -20 -19 -19 -19 -19 -18 -19 -18 -17 -18 -17 -17 -17 -18 -17 -17 -17 -17 -17 -17 -17 -16 -17 -16
-24 -24 -24 -24 -24 -24 -23 -23 -23 -24 -27 -25 -26 -23 -22 -22 -21 -21 -20 -20 -20 -19 -19 -19 -19 -18 -18 -18 -17 -17 -17 -17 -17 -17 -17 -18 -17 -17 -17 -17 -16 -16 -17 -17
-24 -24 -24 -24 -24 -24 -23 -23 -25 -27 -27 -25 -24 -24 -23 -22 -22 -21 -21 -20 -20 -20 -19 -19 -19 -18 -18 -18 -17 -17 -17 -16 -17 -17 -17 -17 -17 -17 -17 -17 -17 -17 -17 -17
-24 -24 -24 -24 -24 -24 -23 -24 -25 -27 -28 -25 -26 -24 -23 -22 -22 -22 -22 -20 -20 -20 -19 -19 -19 -18 -18 -17 -17 -17 -17 -17 -17 -17 -17 -17 -18 -17 -17 -17 -17 -18 -17 -17
-24 -24 -24 -24 -24 -24 -24 -25 -27 -28 -28 -27 -25 -24 -23 -23 -22 -22 -21 -20 -19 -19 -19 -18 -18 -18 -18 -17 -16 -16 -16 -17 -17 -17 -17 -17 -18 -18 -17 -17 -18 -18 -18 -18
-25 -25 -25 -25 -25 -25 -27 -28 -29 -29 -28 -27 -26 -24 -24 -22 -22 -21 -20 -20 -20 -19 -18 -18 -18 -18 -18 -16 -16 -16 -16 -16 -16 -17 -17 -18 -18 -18 -18 -18 -18 -18 -18 -18
-26 -25 -25 -25 -28 -28 -28 -28 -28 -28 -27 -26 -25 -24 -23 -22 -21 -20 -19 -19 -19 -18 -18 -18 -18 -17 -16 -16 -16 -16 -16 -17 -17 -17 -18 -18 -18 -18 -18 -18 -19 -18 -18 -19
-27 -27 -28 -29 -28 -28 -28 -28 -27 -27 -26 -26 -25 -23 -22 -21 -20 -20 -19 -19 -19 -18 -18 -18 -17 -17 -16 -16 -16 -16 -16 -17 -17 -18 -17 -18 -18 -18 -18 -19 -19 -19 -19 -19
-29 -30 -28 -29 -29 -28 -28 -27 -28 -27 -26 -24 -23 -23 -22 -21 -20 -20 -20 -20 -19 -19 -18 -18 -17 -16 -17 -17 -17 -17 -17 -17 -17 -17 -18 -18 -18 -18 -18 -18 -18 -19 -19 -19
-28 -28 -28 -27 -27 -26 -26 -27 -25 -24 -23 -23 -23 -22 -21 -21 -21 -21 -20 -20 -19 -18 -18 -18 -17 -17 -17 -18 -17 -17 -17 -17 -17 -17 -17 -18 -18 -18 -18 -18 -18 -19 -19 -19
-27 -26 -26 -25 -24 -24 -24 -23 -23 -22 -22 -22 -21 -21 -21 -21 -21 -20 -20 -19 -19 -18 -18 -18 -17 -17 -17 -17 -17 -18 -18 -17 -17 -18 -18 -18 -18 -19 -19 -19 -19 -19 -19 -19
-25 -25 -25 -24 -23 -21 -21 -21 -21 -21 -21 -21 -21 -21 -20 -20 -19 -19 -19 -19 -19 -18 -18 -18 -18 -18 -18 -18 -18 -18 -18 -18 -18 -18 -18 -18 -18 -18 -18 -18 -19 -19 -19 -20
-23 -23 -23 -22 -22 -21 -21 -21 -20 -20 -20 -20 -20 -20 -20 -20 -20 -19 -19 -19 -19 -19 -19 -19 -18 -18 -18 -18 -18 -19 -19 -19 -18 -19 -19 -19 -19 -19 -19 -19 -19 -20 -20 -20
-21 -21 -21 -21 -21 -21 -20 -20 -20 -20 -20 -20 -20 -20 -20 -20 -20 -19 -19 -19 -19 -19 -19 -19 -19 -19 -19 -19 -19 -19 -20 -20 -19 -19 -19 -19 -20 -20 -20 -20 -20 -20 -21 -21
-21 -20 -20 -20 -20 -20 -20 -20 -20 -20 -20 -20 -20 -20 -20 -20 -20 -20 -20 -20 -20 -20 -20 -20 -20 -20 -20 -20 -20 -20 -20 -20 -19 -20 -20 -20 -20 -20 -21 -21 -21 -21 -21 -21

GFSNW_500_temp_060.txt.gz
Temp
-21 -21 -22 -21 -22 -22 -23 -23 -21 -21 -22 -22 -18 -16 -15 -14 -15 -16 -16 -16 -16 -17 -16 -17 -17 -14 -14 -15 -15 -14 -14 -15 -15 -16 -16 -16 -16 -16 -16 -16 -16 -16 -15 -15
-23 -23 -22 -22 -22 -22 -22 -22 -22 -22 -23 -22 -19 -16 -16 -15 -15 -16 -16 -16 -17 -18 -18 -17 -17 -15 -15 -15 -15 -15 -14 -15 -15 -16 -16 -16 -15 -16 -16 -17 -16 -15 -16 -15
-25 -25 -24 -23 -23 -23 -23 -23 -23 -24 -22 -22 -19 -18 -16 -15 -15 -17 -16 -17 -17 -18 -18 -18 -17 -17 -16 -15 -16 -16 -16 -16 -15 -15 -16 -16 -17 -17 -17 -17 -17 -16 -15 -16
-26 -26 -25 -25 -24 -23 -23 -23 -22 -21 -19 -21 -20 -19 -17 -16 -16 -17 -16 -17 -18 -18 -19 -18 -18 -17 -17 -16 -16 -16 -15 -15 -14 -15 -16 -16 -16 -16 -16 -17 -16 -17 -16 -16
-26 -27 -26 -26 -24 -23 -23 -22 -21 -20 -21 -21 -20 -19 -18 -16 -16 -18 -16 -16 -18 -20 -19 -19 -19 -18 -17 -16 -16 -16 -16 -15 -15 -15 -15 -16 -16 -16 -16 -16 -16 -16 -16 -15
-26 -27 -26 -26 -24 -24 -23 -22 -22 -21 -22 -22 -21 -21 -19 -16 -16 -18 -17 -18 -19 -20 -19 -20 -20 -19 -18 -17 -16 -16 -16 -15 -15 -15 -16 -16 -14 -15 -16 -17 -17 -17 -17 -17
-26 -27 -26 -26 -25 -24 -23 -22 -22 -21 -21 -23 -21 -20 -20 -19 -16 -18 -18 -18 -19 -20 -21 -20 -20 -19 -18 -18 -17 -17 -16 -16 -16 -16 -16 -15 -15 -16 -17 -17 -17 -17 -17 -17
-26 -26 -26 -25 -25 -24 -23 -22 -22 -21 -22 -23 -22 -21 -21 -21 -20 -20 -18 -19 -19 -21 -21 -21 -20 -20 -20 -19 -18 -17 -17 -17 -16 -16 -15 -15 -15 -16 -17 -17 -17 -17 -17 -17
-26 -26 -26 -26 -25 -25 -23 -23 -23 -22 -23 -22 -23 -22 -21 -21 -20 -21 -20 -20 -20 -21 -20 -21 -20 -20 -19 -19 -19 -18 -17 -17 -17 -16 -15 -14 -15 -16 -17 -17 -16 -18 -17 -16
-26 -25 -26 -25 -25 -24 -23 -23 -23 -23 -23 -23 -23 -23 -21 -21 -21 -22 -21 -20 -20 -21 -21 -20 -21 -20 -20 -19 -19 -18 -18 -18 -17 -17 -16 -15 -15 -16 -17 -16 -17 -17 -17 -16
-25 -25 -25 -25 -25 -24 -23 -23 -23 -23 -23 -23 -23 -23 -23 -22 -23 -22 -20 -21 -21 -21 -21 -20 -20 -20 -19 -19 -18 -18 -18 -18 -17 -17 -16 -15 -16 -17 -17 -17 -17 -17 -17 -16
-25 -25 -25 -25 -24 -24 -24 -23 -23 -23 -23 -23 -24 -25 -24 -23 -23 -23 -21 -21 -21 -21 -21 -21 -21 -20 -19 -19 -18 -18 -18 -18 -17 -17 -16 -16 -16 -17 -17 -17 -17 -17 -16 -16
-25 -25 -25 -25 -24 -24 -24 -23 -23 -23 -23 -23 -25 -26 -25 -24 -23 -22 -22 -22 -21 -21 -21 -21 -21 -20 -20 -19 -19 -18 -18 -18 -17 -18 -17 -17 -17 -17 -17 -17 -17 -17 -16 -16
-25 -25 -25 -24 -24 -24 -24 -24 -24 -24 -23 -24 -26 -25 -25 -25 -24 -22 -22 -21 -21 -21 -21 -20 -20 -20 -20 -19 -19 -18 -18 -18 -17 -17 -17 -17 -17 -18 -18 -17 -17 -17 -16 -17
-25 -25 -24 -24 -24 -24 -24 -24 -23 -23 -25 -26 -26 -25 -24 -24 -23 -21 -21 -21 -21 -21 -21 -20 -20 -20 -19 -19 -19 -18 -17 -17 -18 -17 -17 -18 -18 -17 -17 -17 -17 -17 -17 -17
-24 -24 -24 -24 -24 -24 -24 -24 -23 -23 -24 -26 -27 -26 -24 -24 -24 -23 -21 -21 -21 -21 -21 -20 -20 -20 -20 -19 -18 -18 -17 -17 -17 -17 -17 -17 -17 -17 -17 -17 -17 -17 -17 -17
-24 -24 -24 -24 -24 -24 -23 -23 -25 -24 -24 -26 -26 -26 -25 -25 -24 -23 -21 -21 -21 -21 -20 -20 -20 -20 -20 -18 -17 -18 -17 -17 -17 -17 -16 -16 -17 -17 -17 -18 -17 -17 -17 -17
-24 -24 -24 -24 -24 -24 -24 -24 -25 -25 -25 -25 -26 -25 -25 -24 -24 -22 -21 -21 -21 -20 -20 -20 -20 -20 -19 -17 -18 -18 -18 -17 -17 -17 -16 -16 -16 -17 -17 -18 -18 -18 -17 -18
-24 -24 -24 -24 -24 -24 -24 -25 -26 -26 -25 -25 -25 -24 -24 -24 -23 -22 -21 -21 -20 -20 -20 -20 -20 -19 -17 -17 -18 -18 -17 -17 -17 -17 -17 -17 -17 -17 -17 -18 -18 -18 -18 -18
-25 -25 -25 -25 -25 -25 -25 -25 -27 -27 -26 -25 -25 -24 -23 -21 -21 -21 -21 -20 -20 -19 -19 -19 -19 -18 -18 -17 -17 -17 -17 -17 -17 -17 -17 -17 -17 -17 -17 -17 -17 -18 -18 -18
-25 -25 -25 -26 -26 -27 -28 -27 -27 -27 -25 -24 -23 -23 -22 -22 -21 -21 -21 -21 -20 -19 -18 -18 -17 -17 -18 -17 -17 -17 -17 -17 -17 -17 -17 -17 -17 -17 -17 -17 -17 -18 -18 -18
-25 -26 -26 -27 -27 -27 -28 -27 -27 -26 -26 -24 -23 -23 -23 -22 -21 -21 -22 -21 -20 -19 -19 -19 -18 -18 -18 -18 -18 -17 -17 -17 -17 -17 -17 -17 -17 -17 -17 -17 -18 -18 -18 -18
-26 -26 -27 -27 -27 -27 -27 -27 -26 -26 -25 -24 -23 -22 -22 -21 -21 -20 -20 -20 -20 -20 -19 -18 -18 -18 -18 -18 -17 -17 -17 -17 -17 -17 -17 -17 -17 -17 -18 -18 -18 -18 -18 -18
-26 -26 -26 -26 -25 -25 -26 -25 -25 -25 -25 -23 -22 -22 -21 -21 -20 -20 -20 -19 -19 -19 -18 -18 -18 -18 -18 -18 -18 -17 -17 -17 -17 -18 -18 -18 -18 -18 -18 -18 -18 -18 -18 -18
-25 -25 -24 -24 -25 -24 -24 -24 -24 -23 -23 -23 -22 -22 -22 -21 -21 -21 -20 -20 -19 -19 -18 -18 -18 -18 -18 -18 -18 -18 -18 -18 -18 -18 -18 -18 -18 -18 -18 -19 -19 -19 -19 -19
-23 -23 -23 -23 -23 -23 -23 -23 -23 -23 -23 -22 -22 -22 -21 -20 -20 -20 -20 -20 -19 -19 -19 -19 -19 -19 -19 -19 -19 -19 -19 -18 -18 -18 -19 -19 -19 -19 -20 -20 -20 -20 -20 -20
-22 -22 -22 -21 -22 -22 -21 -21 -22 -22 -22 -21 -21 -21 -21 -20 -20 -20 -20 -20 -20 -20 -20 -19 -19 -19 -19 -19 -20 -20 -20 -19 -19 -20 -20 -20 -20 -20 -20 -20 -20 -20 -20 -20

GFSNW_500_temp_063.txt.gz
Temp
-20 -20 -20 -21 -21 -21 -22 -22 -20 -21 -22 -22 -21 -20 -17 -16 -17 -17 -15 -16 -17 -16 -16 -17 -17 -16 -17 -17 -15 -15 -15 -15 -17 -14 -15 -16 -16 -16 -17 -17 -16 -16 -16 -15
-20 -20 -20 -21 -21 -22 -22 -22 -21 -22 -23 -21 -20 -19 -19 -18 -17 -16 -16 -16 -17 -17 -17 -17 -17 -17 -17 -16 -16 -16 -16 -15 -16 -17 -15 -15 -15 -17 -17 -17 -17 -16 -16 -15
-21 -21 -21 -21 -22 -22 -23 -23 -22 -22 -22 -21 -20 -20 -20 -19 -18 -17 -17 -17 -17 -17 -17 -18 -18 -18 -18 -17 -16 -16 -16 -16 -16 -16 -16 -16 -15 -16 -17 -17 -16 -15 -16 -17
-22 -22 -23 -23 -23 -23 -24 -24 -22 -21 -20 -19 -19 -21 -20 -20 -19 -18 -17 -17 -17 -17 -18 -18 -19 -18 -17 -18 -17 -16 -16 -16 -16 -16 -17 -17 -17 -17 -17 -17 -17 -17 -16 -17
-24 -23 -24 -25 -24 -24 -24 -24 -23 -22 -21 -21 -21 -22 -20 -20 -20 -20 -17 -16 -17 -18 -19 -20 -19 -20 -19 -18 -18 -17 -17 -16 -16 -15 -16 -18 -17 -17 -17 -17 -17 -16 -17 -17
-25 -25 -25 -25 -25 -26 -25 -24 -24 -22 -22 -21 -22 -22 -22 -20 -21 -20 -20 -19 -19 -19 -19 -19 -18 -20 -19 -17 -18 -17 -17 -16 -16 -15 -16 -17 -16 -14 -16 -16 -17 -16 -16 -16
-26 -26 -27 -27 -27 -25 -25 -24 -24 -23 -23 -22 -20 -22 -22 -22 -20 -21 -22 -22 -19 -20 -19 -20 -20 -20 -19 -19 -19 -18 -17 -17 -17 -16 -16 -15 -14 -15 -16 -16 -16 -16 -16 -16
-26 -26 -26 -26 -26 -26 -25 -25 -24 -24 -23 -22 -22 -22 -23 -23 -23 -22 -22 -22 -20 -22 -20 -21 -22 -20 -19 -18 -18 -18 -18 -18 -17 -16 -15 -15 -15 -15 -16 -17 -16 -16 -17 -17
-26 -26 -26 -26 -26 -26 -25 -25 -25 -24 -24 -22 -22 -23 -23 -23 -23 -22 -22 -23 -21 -20 -20 -21 -21 -19 -18 -19 -18 -18 -18 -18 -18 -17 -16 -16 -15 -15 -17 -17 -15 -17 -18 -18
-25 -25 -26 -26 -26 -25 -25 -25 -25 -24 -24 -24 -24 -23 -23 -24 -23 -23 -23 -21 -21 -21 -20 -21 -22 -19 -18 -19 -18 -18 -18 -18 -18 -17 -16 -15 -15 -16 -17 -16 -17 -18 -17 -16
-25 -25 -25 -25 -26 -25 -25 -25 -25 -24 -24 -24 -23 -23 -23 -24 -23 -23 -22 -22 -21 -21 -21 -20 -21 -20 -19 -20 -19 -18 -18 -18 -18 -18 -17 -16 -16 -16 -16 -17 -17 -17 -17 -16
-25 -26 -26 -26 -25 -25 -25 -25 -25 -24 -24 -24 -24 -23 -24 -24 -23 -23 -23 -22 -21 -20 -21 -21 -20 -20 -19 -19 -19 -19 -18 -18 -18 -18 -17 -17 -17 -17 -17 -18 -18 -17 -17 -16
-26 -27 -26 -26 -25 -25 -25 -25 -25 -24 -24 -24 -24 -24 -24 -23 -24 -23 -23 -23 -22 -21 -21 -21 -21 -20 -20 -20 -19 -20 -19 -19 -18 -18 -18 -18 -17 -17 -17 -18 -18 -18 -17 -16
-26 -26 -26 -25 -25 -25 -25 -25 -25 -25 -25 -25 -25 -24 -23 -23 -23 -23 -22 -23 -23 -21 -21 -21 -21 -20 -20 -20 -20 -19 -19 -19 -18 -18 -18 -18 -18 -17 -18 -18 -18 -18 -18 -17
-25 -25 -25 -25 -25 -25 -25 -25 -25 -25 -25 -24 -24 -24 -23 -24 -24 -24 -24 -22 -22 -20 -21 -20 -20 -20 -20 -20 -19 -18 -19 -18 -18 -18 -18 -18 -18 -18 -18 -18 -17 -18 -18 -17
-25 -25 -25 -25 -25 -25 -25 -25 -25 -24 -24 -24 -24 -23 -24 -25 -25 -24 -23 -22 -22 -21 -20 -20 -20 -20 -20 -19 -18 -18 -19 -19 -18 -19 -19 -19 -19 -19 -19 -18 -17 -17 -18 -17
-25 -25 -25 -25 -25 -25 -25 -24 -24 -24 -24 -23 -23 -24 -24 -24 -25 -24 -23 -23 -22 -21 -20 -20 -20 -20 -20 -19 -18 -19 -19 -19 -19 -18 -18 -18 -18 -18 -18 -18 -17 -17 -17 -17
-25 -25 -24 -24 -25 -25 -25 -24 -24 -24 -23 -23 -23 -24 -24 -24 -24 -24 -22 -22 -22 -21 -21 -20 -21 -20 -19 -18 -18 -19 -19 -19 -18 -18 -18 -17 -17 -17 -17 -17 -17 -17 -17 -17
-24 -24 -24 -24 -24 -24 -24 -24 -23 -23 -22 -22 -23 -24 -24 -24 -24 -23 -22 -22 -22 -21 -21 -21 -21 -20 -19 -18 -20 -19 -19 -18 -18 -18 -17 -17 -17 -17 -17 -17 -17 -17 -17 -17
-24 -24 -24 -24 -24 -24 -24 -23 -23 -23 -23 -23 -23 -24 -24 -24 -23 -23 -22 -20 -22 -21 -20 -21 -20 -20 -20 -20 -19 -19 -18 -18 -18 -17 -17 -17 -17 -17 -17 -17 -17 -17 -17 -17
-24 -24 -24 -24 -24 -24 -24 -23 -23 -23 -23 -23 -24 -24 -24 -24 -24 -23 -22 -22 -22 -21 -20 -21 -20 -20 -19 -19 -19 -18 -18 -18 -18 -17 -17 -17 -17 -17 -17 -17 -17 -17 -17 -17
-24 -24 -24 -24 -24 -24 -24 -24 -24 -24 -23 -24 -24 -24 -24 -24 -24 -23 -23 -22 -21 -21 -20 -20 -19 -19 -18 -18 -18 -18 -18 -18 -17 -17 -17 -17 -17 -17 -17 -17 -17 -17 -17 -17
-24 -25 -25 -26 -26 -26 -26 -25 -25 -25 -25 -25 -23 -23 -22 -23 -23 -22 -21 -22 -22 -21 -20 -19 -19 -19 -19 -19 -19 -19 -18 -18 -17 -17 -17 -17 -17 -17 -17 -17 -17 -17 -17 -18
-25 -25 -26 -26 -27 -26 -26 -27 -26 -26 -26 -24 -24 -23 -23 -23 -23 -23 -22 -22 -21 -21 -20 -19 -19 -19 -19 -18 -18 -18 -18 -18 -17 -17 -17 -17 -17 -17 -17 -17 -17 -17 -18 -18
-26 -26 -26 -25 -26 -26 -27 -26 -26 -24 -24 -24 -24 -23 -23 -23 -23 -22 -22 -22 -22 -20 -19 -19 -19 -18 -18 -18 -18 -18 -18 -18 -18 -18 -18 -18 -18 -18 -18 -18 -18 -18 -18 -19
-25 -25 -24 -24 -25 -26 -25 -23 -23 -22 -23 -23 -22 -23 -22 -22 -21 -21 -21 -20 -20 -20 -19 -19 -19 -19 -19 -19 -19 -18 -18 -18 -18 -18 -18 -18 -18 -19 -19 -19 -19 -19 -19 -20
-23 -23 -23 -23 -23 -23 -22 -23 -23 -23 -22 -21 -21 -21 -21 -21 -21 -21 -21 -21 -20 -20 -19 -19 -19 -19 -19 -19 -19 -19 -19 -19 -19 -19 -19 -20 -20 -20 -20 -20 -20 -20 -20 -20

GFSNW_500_temp_066.txt.gz
Temp
-20 -20 -20 -20 -20 -21 -21 -20 -20 -20 -21 -21 -20 -18 -18 -18 -19 -20 -20 -17 -17 -18 -18 -18 -16 -16 -16 -16 -15 -15 -18 -16 -16 -16 -15 -15 -15 -15 -15 -15 -15 -15 -15 -15
-20 -20 -20 -20 -20 -21 -21 -20 -20 -20 -21 -20 -18 -18 -18 -20 -20 -20 -21 -19 -18 -19 -19 -18 -17 -17 -18 -17 -16 -15 -17 -17 -17 -16 -16 -15 -15 -16 -15 -15 -16 -16 -15 -15
-20 -20 -20 -20 -20 -21 -21 -21 -21 -20 -21 -20 -19 -19 -19 -20 -21 -19 -21 -21 -20 -21 -19 -18 -17 -18 -19 -18 -17 -16 -18 -17 -17 -16 -15 -15 -15 -15 -16 -16 -16 -15 -15 -15
-20 -20 -20 -21 -21 -21 -22 -21 -20 -20 -20 -19 -19 -19 -19 -20 -21 -21 -20 -22 -21 -20 -20 -19 -19 -18 -19 -18 -17 -17 -17 -17 -17 -17 -17 -16 -16 -15 -15 -15 -16 -15 -15 -16
-20 -20 -21 -22 -22 -22 -22 -22 -21 -20 -20 -20 -21 -20 -20 -20 -20 -20 -21 -20 -22 -21 -21 -20 -20 -21 -18 -18 -18 -18 -18 -17 -18 -18 -17 -16 -16 -16 -16 -15 -16 -16 -17 -17
-23 -23 -24 -24 -23 -23 -24 -24 -22 -21 -21 -20 -21 -20 -20 -20 -21 -21 -21 -20 -21 -22 -19 -20 -18 -19 -18 -19 -17 -18 -19 -18 -17 -17 -17 -17 -16 -16 -17 -17 -17 -17 -17 -16
-25 -24 -25 -24 -23 -23 -24 -24 -24 -24 -22 -22 -20 -21 -21 -21 -21 -22 -22 -22 -22 -21 -20 -19 -18 -19 -18 -18 -18 -18 -19 -19 -18 -18 -17 -16 -16 -16 -16 -16 -16 -17 -17 -17
-26 -26 -26 -25 -24 -24 -24 -24 -24 -25 -24 -23 -22 -22 -21 -22 -22 -23 -23 -22 -20 -23 -22 -20 -18 -19 -19 -18 -18 -17 -18 -19 -19 -18 -17 -16 -16 -16 -16 -16 -15 -16 -17 -17
-27 -27 -27 -25 -25 -24 -24 -25 -25 -25 -24 -24 -23 -23 -22 -22 -22 -23 -22 -23 -24 -22 -20 -19 -19 -19 -18 -18 -18 -18 -18 -18 -17 -18 -18 -16 -16 -16 -16 -16 -16 -16 -16 -17
-26 -27 -27 -26 -25 -24 -24 -24 -25 -25 -24 -25 -25 -24 -23 -23 -23 -23 -23 -24 -21 -22 -21 -21 -20 -19 -20 -19 -18 -18 -18 -18 -17 -17 -17 -16 -16 -16 -17 -16 -16 -16 -16 -17
-26 -27 -27 -26 -26 -25 -25 -24 -25 -25 -25 -24 -24 -24 -24 -23 -23 -23 -23 -24 -22 -22 -22 -21 -20 -20 -20 -19 -18 -18 -18 -18 -17 -17 -17 -16 -17 -17 -17 -16 -17 -18 -18 -18
-26 -26 -26 -26 -26 -26 -26 -25 -25 -25 -24 -24 -24 -24 -24 -23 -23 -24 -24 -23 -21 -21 -21 -20 -20 -21 -21 -19 -18 -18 -18 -17 -17 -18 -17 -17 -17 -17 -17 -17 -18 -18 -18 -17
-26 -26 -26 -26 -27 -26 -26 -25 -25 -25 -25 -25 -24 -24 -24 -24 -23 -23 -23 -23 -22 -22 -21 -21 -21 -21 -20 -19 -18 -19 -17 -17 -17 -17 -17 -18 -18 -17 -17 -17 -18 -18 -18 -17
-26 -25 -26 -27 -27 -26 -26 -25 -25 -25 -25 -24 -24 -24 -24 -24 -23 -23 -23 -23 -23 -22 -22 -22 -21 -20 -20 -19 -20 -19 -19 -18 -17 -17 -16 -17 -17 -17 -18 -18 -18 -18 -18 -18
-26 -25 -26 -26 -26 -25 -25 -25 -25 -25 -25 -25 -25 -24 -24 -22 -22 -23 -23 -23 -22 -21 -21 -20 -20 -20 -21 -20 -19 -18 -19 -18 -18 -17 -18 -18 -18 -18 -18 -18 -18 -18 -18 -18
-26 -25 -26 -26 -25 -25 -25 -25 -25 -25 -25 -25 -25 -24 -23 -22 -22 -22 -22 -23 -22 -22 -22 -21 -20 -20 -20 -20 -19 -19 -19 -19 -19 -18 -19 -19 -18 -18 -18 -18 -18 -18 -18 -18
-26 -25 -25 -25 -25 -25 -25 -25 -25 -25 -25 -25 -24 -23 -22 -22 -22 -22 -23 -24 -23 -22 -21 -20 -20 -20 -20 -20 -19 -19 -19 -19 -19 -19 -19 -19 -19 -19 -18 -19 -18 -18 -18 -18
-25 -25 -25 -25 -25 -25 -25 -25 -25 -25 -25 -24 -24 -22 -22 -22 -23 -23 -23 -23 -23 -22 -21 -21 -20 -21 -20 -20 -20 -20 -20 -20 -19 -19 -19 -19 -19 -19 -19 -18 -19 -19 -18 -18
-25 -25 -25 -25 -25 -25 -25 -25 -25 -25 -24 -23 -23 -22 -22 -23 -24 -24 -23 -23 -23 -22 -21 -21 -21 -21 -20 -20 -20 -20 -19 -19 -18 -19 -18 -18 -18 -18 -18 -17 -17 -17 -17 -17
-25 -25 -25 -25 -26 -26 -25 -25 -24 -24 -23 -22 -22 -22 -23 -24 -23 -23 -23 -23 -22 -22 -22 -22 -21 -21 -20 -20 -20 -20 -20 -19 -19 -18 -18 -18 -17 -17 -17 -17 -17 -17 -17 -17
-24 -24 -24 -24 -24 -24 -24 -24 -24 -23 -23 -23 -23 -23 -24 -24 -23 -23 -23 -23 -23 -22 -22 -22 -21 -21 -20 -20 -20 -20 -20 -19 -19 -18 -18 -17 -17 -17 -17 -17 -17 -17 -17 -17
-24 -24 -24 -24 -24 -24 -24 -23 -23 -23 -23 -23 -23 -24 -24 -24 -24 -23 -23 -23 -22 -22 -22 -22 -22 -21 -20 -20 -20 -19 -19 -19 -18 -18 -17 -17 -17 -17 -17 -17 -17 -17 -17 -17
-24 -24 -25 -24 -24 -24 -24 -24 -24 -23 -23 -24 -24 -24 -24 -24 -23 -24 -23 -23 -22 -22 -22 -22 -21 -21 -20 -19 -19 -19 -18 -18 -18 -18 -18 -18 -18 -18 -18 -18 -17 -17 -18 -18
-25 -26 -26 -26 -26 -25 -25 -24 -24 -23 -23 -23 -23 -23 -23 -23 -23 -23 -23 -23 -21 -22 -21 -21 -21 -20 -20 -19 -19 -19 -19 -19 -19 -19 -18 -18 -18 -18 -18 -18 -18 -18 -18 -18
-26 -26 -26 -26 -26 -26 -26 -26 -25 -24 -23 -22 -23 -23 -23 -23 -23 -22 -22 -23 -22 -21 -21 -21 -20 -21 -20 -19 -20 -19 -19 -19 -19 -19 -19 -18 -18 -18 -18 -19 -19 -19 -19 -19
-26 -26 -27 -26 -27 -27 -27 -27 -27 -25 -23 -23 -23 -23 -23 -23 -23 -23 -22 -21 -21 -21 -21 -21 -21 -20 -20 -20 -19 -19 -19 -19 -19 -19 -19 -19 -19 -19 -19 -19 -19 -19 -19 -19
-25 -25 -26 -26 -26 -26 -26 -26 -26 -23 -23 -23 -23 -23 -23 -23 -23 -22 -22 -21 -21 -21 -21 -21 -21 -20 -20 -20 -20 -20 -20 -19 -19 -19 -19 -19 -19 -19 -19 -20 -20 -20 -20 -20

GFSNW_500_temp_069.txt.gz
Temp
-22 -22 -22 -22 -22 -22 -22 -22 -21 -20 -22 -21 -19 -18 -18 -19 -20 -21 -22 -21 -20 -20 -19 -17 -17 -18 -16 -16 -16 -15 -15 -15 -15 -15 -16 -15 -16 -16 -15 -15 -15 -15 -15 -16
-22 -22 -22 -22 -22 -22 -22 -22 -21 -21 -21 -20 -19 -19 -19 -19 -20 -21 -21 -21 -20 -21 -20 -18 -18 -18 -17 -17 -16 -16 -17 -15 -16 -16 -16 -15 -16 -16 -16 -16 -16 -15 -15 -15
-22 -21 -21 -21 -21 -21 -22 -22 -21 -21 -20 -19 -19 -20 -19 -19 -20 -20 -21 -21 -21 -20 -20 -20 -18 -18 -18 -17 -17 -17 -17 -16 -16 -15 -15 -16 -15 -16 -16 -16 -16 -16 -15 -15
-21 -21 -21 -21 -21 -21 -21 -22 -21 -20 -19 -19 -19 -19 -19 -19 -19 -19 -21 -20 -21 -20 -20 -20 -18 -17 -18 -17 -17 -18 -17 -15 -16 -15 -16 -16 -16 -16 -16 -15 -16 -16 -15 -15
-21 -21 -21 -21 -21 -22 -22 -22 -21 -20 -20 -20 -20 -20 -19 -19 -19 -20 -20 -20 -21 -21 -20 -21 -20 -18 -18 -17 -18 -18 -17 -16 -16 -16 -16 -16 -16 -16 -16 -16 -16 -16 -15 -15
-21 -21 -21 -21 -21 -22 -23 -23 -22 -21 -20 -20 -20 -19 -19 -20 -20 -20 -20 -21 -22 -22 -21 -21 -20 -20 -19 -18 -18 -18 -18 -16 -17 -16 -16 -16 -16 -15 -16 -16 -16 -17 -16 -16
-24 -24 -23 -22 -21 -22 -25 -24 -23 -22 -21 -21 -20 -20 -20 -20 -20 -20 -21 -21 -21 -20 -23 -21 -19 -20 -19 -18 -18 -18 -17 -17 -17 -17 -17 -17 -16 -16 -15 -16 -16 -17 -17 -17
-25 -25 -25 -25 -24 -24 -25 -24 -24 -24 -23 -21 -21 -20 -21 -21 -21 -20 -20 -20 -21 -23 -23 -22 -20 -19 -19 -18 -18 -18 -19 -18 -17 -17 -17 -16 -16 -16 -16 -16 -15 -16 -16 -16
-26 -26 -26 -25 -25 -25 -26 -25 -24 -24 -24 -22 -22 -22 -22 -22 -22 -21 -20 -21 -22 -23 -23 -22 -20 -20 -20 -19 -18 -18 -18 -19 -18 -17 -17 -17 -15 -16 -17 -17 -16 -16 -16 -16
-27 -27 -26 -26 -26 -25 -26 -25 -25 -25 -24 -24 -24 -23 -22 -23 -23 -21 -21 -22 -23 -22 -22 -22 -20 -20 -20 -19 -19 -18 -17 -18 -18 -17 -17 -16 -16 -17 -17 -17 -16 -16 -16 -16
-26 -26 -26 -27 -27 -26 -26 -26 -25 -25 -25 -24 -24 -24 -23 -24 -23 -22 -22 -23 -22 -22 -22 -22 -21 -20 -20 -20 -19 -19 -19 -18 -18 -18 -17 -17 -17 -17 -17 -17 -17 -17 -17 -17
-27 -27 -26 -27 -27 -28 -27 -26 -26 -25 -25 -24 -24 -24 -24 -24 -24 -23 -22 -22 -22 -22 -22 -21 -22 -20 -20 -20 -20 -19 -18 -17 -17 -18 -17 -17 -17 -17 -17 -17 -18 -18 -18 -18
-27 -26 -26 -27 -27 -27 -26 -26 -26 -25 -25 -24 -25 -25 -24 -24 -24 -23 -22 -22 -22 -22 -23 -22 -21 -21 -20 -20 -20 -19 -19 -19 -18 -18 -17 -17 -17 -17 -17 -17 -18 -18 -18 -18
-27 -27 -27 -27 -27 -27 -27 -26 -25 -25 -25 -24 -24 -25 -24 -24 -24 -23 -22 -22 -22 -22 -22 -22 -22 -21 -21 -21 -21 -19 -19 -19 -18 -17 -18 -17 -17 -16 -17 -16 -17 -17 -18 -18
-27 -27 -27 -27 -27 -27 -26 -25 -25 -25 -25 -24 -24 -24 -24 -23 -24 -23 -23 -23 -22 -23 -22 -22 -21 -21 -21 -21 -21 -19 -19 -19 -19 -18 -18 -17 -17 -17 -17 -17 -17 -17 -18 -18
-26 -26 -27 -27 -27 -26 -26 -25 -25 -25 -25 -24 -24 -24 -24 -24 -24 -24 -23 -22 -23 -23 -23 -21 -21 -22 -22 -21 -20 -19 -19 -19 -18 -19 -19 -18 -17 -17 -17 -17 -17 -17 -17 -17
-26 -27 -27 -27 -27 -25 -25 -25 -25 -25 -24 -25 -24 -24 -24 -24 -23 -23 -22 -23 -23 -23 -23 -22 -22 -21 -21 -21 -20 -19 -19 -20 -20 -19 -18 -19 -18 -17 -18 -18 -18 -18 -17 -17
-26 -26 -26 -27 -26 -26 -26 -25 -25 -25 -25 -25 -25 -24 -24 -24 -23 -23 -23 -22 -23 -23 -23 -22 -22 -21 -21 -21 -21 -21 -20 -20 -20 -20 -19 -19 -18 -17 -18 -18 -19 -19 -19 -19
-26 -25 -25 -25 -25 -25 -25 -25 -25 -25 -25 -25 -24 -24 -23 -23 -23 -23 -23 -23 -23 -22 -23 -22 -22 -22 -21 -21 -21 -20 -20 -20 -20 -19 -19 -19 -19 -19 -18 -18 -19 -20 -19 -19
-25 -25 -25 -25 -25 -26 -26 -26 -25 -25 -25 -24 -24 -24 -24 -23 -23 -23 -24 -24 -24 -23 -23 -22 -22 -21 -21 -21 -21 -21 -20 -20 -20 -20 -19 -19 -19 -19 -18 -18 -18 -18 -19 -19
-25 -25 -25 -25 -25 -25 -26 -26 -25 -25 -24 -24 -24 -24 -23 -23 -23 -23 -24 -24 -23 -23 -23 -23 -22 -22 -22 -22 -21 -21 -21 -20 -20 -20 -19 -19 -19 -18 -18 -18 -18 -17 -18 -18
-25 -25 -25 -26 -25 -25 -25 -25 -24 -24 -24 -24 -24 -23 -23 -23 -23 -24 -23 -23 -23 -22 -23 -23 -22 -22 -22 -22 -21 -21 -21 -21 -20 -20 -20 -19 -19 -18 -18 -18 -17 -18 -18 -18
-25 -25 -25 -25 -25 -25 -24 -24 -24 -24 -24 -24 -23 -23 -23 -23 -24 -24 -23 -23 -23 -23 -22 -21 -21 -21 -22 -21 -21 -21 -21 -20 -19 -19 -19 -18 -18 -18 -18 -18 -18 -18 -18 -18
-25 -25 -25 -25 -25 -24 -24 -24 -24 -24 -24 -23 -23 -23 -24 -24 -24 -24 -23 -23 -23 -23 -22 -22 -22 -22 -21 -21 -21 -21 -20 -20 -19 -19 -19 -18 -18 -19 -19 -19 -19 -18 -18 -18
-25 -25 -25 -25 -25 -24 -24 -23 -23 -23 -23 -23 -23 -24 -25 -24 -24 -23 -23 -23 -22 -22 -22 -22 -22 -22 -22 -21 -21 -21 -21 -20 -20 -20 -19 -19 -19 -20 -20 -19 -19 -19 -19 -19
-26 -26 -26 -26 -25 -24 -24 -23 -23 -23 -23 -23 -24 -24 -24 -23 -23 -23 -23 -22 -22 -22 -22 -22 -22 -22 -22 -22 -21 -21 -20 -20 -20 -20 -20 -19 -19 -19 -19 -19 -19 -19 -19 -19
-26 -26 -26 -26 -26 -26 -25 -24 -23 -23 -23 -24 -24 -23 -23 -23 -23 -23 -22 -22 -22 -22 -22 -22 -22 -22 -22 -21 -21 -21 -20 -20 -20 -20 -20 -20 -20 -20 -20 -20 -20 -20 -20 -20

GFSNW_500_temp_072.txt.gz
Temp
-23 -23 -24 -24 -24 -24 -23 -23 -22 -22 -22 -22 -20 -19 -19 -20 -20 -21 -21 -20 -21 -20 -19 -18 -19 -18 -16 -16 -17 -16 -16 -16 -16 -15 -15 -15 -16 -15 -16 -15 -14 -15 -15 -15
-23 -23 -23 -23 -23 -23 -23 -23 -22 -22 -22 -21 -20 -20 -20 -20 -20 -21 -21 -20 -21 -20 -20 -19 -19 -18 -17 -18 -17 -17 -17 -16 -15 -15 -15 -16 -15 -15 -17 -17 -16 -15 -15 -15
-23 -23 -23 -23 -23 -23 -23 -23 -22 -22 -21 -21 -21 -20 -20 -19 -20 -21 -21 -20 -20 -20 -20 -20 -19 -18 -18 -18 -18 -17 -17 -16 -15 -15 -15 -15 -16 -16 -16 -17 -16 -16 -15 -15
-22 -22 -22 -22 -22 -22 -22 -22 -22 -21 -20 -20 -21 -20 -20 -19 -19 -20 -21 -20 -20 -21 -20 -20 -19 -19 -18 -18 -18 -18 -17 -16 -16 -16 -16 -16 -16 -16 -16 -16 -17 -16 -15 -16
-22 -22 -22 -22 -22 -22 -22 -22 -21 -21 -21 -20 -20 -20 -19 -19 -20 -20 -20 -20 -21 -21 -21 -21 -20 -19 -18 -18 -18 -17 -17 -16 -16 -16 -16 -16 -16 -16 -16 -16 -16 -16 -16 -16
-22 -22 -22 -22 -22 -22 -22 -22 -21 -21 -21 -21 -20 -19 -19 -19 -20 -20 -21 -20 -20 -20 -22 -21 -21 -20 -19 -19 -18 -18 -17 -17 -16 -15 -17 -16 -16 -15 -16 -16 -16 -17 -17 -16
-23 -23 -22 -22 -22 -22 -22 -22 -22 -22 -20 -20 -19 -20 -20 -20 -20 -20 -21 -21 -21 -21 -22 -21 -21 -21 -20 -19 -18 -18 -18 -18 -18 -17 -17 -16 -15 -16 -16 -16 -16 -17 -17 -17
-25 -24 -25 -24 -23 -23 -24 -23 -23 -22 -21 -20 -21 -20 -20 -20 -20 -20 -21 -21 -21 -22 -21 -22 -21 -20 -20 -19 -20 -20 -19 -18 -18 -18 -17 -16 -15 -16 -16 -17 -17 -17 -17 -17
-25 -25 -25 -25 -25 -26 -25 -24 -24 -24 -23 -21 -21 -21 -21 -21 -21 -21 -21 -22 -22 -22 -21 -21 -21 -21 -21 -20 -19 -20 -19 -18 -18 -18 -17 -15 -15 -17 -16 -16 -16 -16 -16 -17
-25 -25 -26 -26 -26 -26 -27 -26 -26 -26 -25 -23 -22 -21 -21 -21 -21 -21 -21 -22 -22 -22 -21 -21 -20 -20 -22 -21 -20 -20 -20 -19 -18 -18 -17 -16 -16 -17 -17 -17 -15 -16 -16 -16
-26 -26 -26 -27 -27 -27 -27 -26 -26 -26 -25 -25 -24 -23 -22 -22 -22 -21 -22 -23 -22 -22 -21 -21 -20 -20 -21 -21 -19 -19 -19 -19 -18 -18 -18 -17 -18 -18 -17 -16 -17 -17 -18 -17
-27 -27 -26 -27 -27 -27 -27 -26 -27 -26 -26 -25 -24 -24 -24 -24 -24 -23 -22 -21 -22 -22 -21 -20 -21 -20 -21 -20 -20 -19 -19 -19 -18 -19 -19 -19 -18 -18 -17 -17 -17 -18 -17 -17
-27 -27 -27 -27 -27 -27 -27 -26 -27 -26 -25 -25 -24 -24 -24 -24 -24 -23 -22 -21 -22 -22 -22 -21 -22 -21 -21 -21 -21 -21 -20 -20 -19 -19 -18 -18 -18 -18 -18 -18 -17 -18 -17 -16
-27 -27 -27 -27 -27 -27 -27 -26 -26 -26 -25 -25 -24 -24 -24 -24 -24 -24 -23 -23 -23 -22 -22 -21 -21 -21 -22 -21 -21 -21 -21 -20 -20 -19 -19 -19 -18 -18 -18 -17 -17 -17 -17 -17
-27 -27 -27 -27 -27 -27 -27 -27 -26 -26 -25 -24 -24 -24 -24 -24 -24 -24 -23 -23 -23 -22 -22 -21 -21 -21 -22 -22 -21 -21 -21 -20 -20 -19 -20 -19 -18 -18 -18 -18 -17 -17 -17 -17
-27 -27 -27 -27 -28 -28 -28 -27 -26 -25 -25 -25 -25 -25 -24 -24 -24 -24 -24 -24 -23 -23 -23 -22 -22 -22 -22 -22 -21 -21 -21 -22 -21 -19 -19 -19 -19 -18 -18 -17 -17 -17 -17 -18
-27 -27 -27 -27 -27 -27 -27 -26 -25 -25 -25 -25 -25 -25 -25 -24 -24 -24 -24 -24 -23 -23 -23 -22 -22 -22 -22 -21 -21 -21 -21 -21 -20 -19 -19 -19 -19 -18 -18 -17 -17 -17 -17 -17
-27 -27 -27 -27 -27 -26 -26 -26 -25 -25 -25 -25 -25 -24 -24 -24 -24 -24 -24 -23 -23 -23 -23 -23 -22 -23 -22 -22 -22 -21 -21 -21 -20 -20 -19 -19 -20 -19 -19 -19 -19 -19 -18 -18
-27 -27 -27 -27 -26 -26 -25 -25 -25 -25 -25 -25 -25 -25 -24 -24 -24 -24 -24 -24 -24 -23 -23 -23 -23 -23 -22 -21 -21 -21 -21 -21 -21 -21 -20 -20 -20 -20 -20 -20 -20 -20 -19 -18
-27 -26 -26 -26 -26 -26 -25 -25 -25 -25 -25 -25 -25 -25 -24 -24 -24 -24 -24 -24 -24 -23 -24 -23 -23 -22 -21 -22 -21 -22 -21 -21 -22 -21 -21 -20 -20 -20 -20 -20 -20 -19 -19 -19
-26 -25 -25 -25 -25 -25 -25 -25 -25 -25 -25 -25 -24 -24 -24 -24 -24 -24 -24 -24 -24 -24 -24 -24 -23 -22 -22 -22 -22 -21 -21 -22 -21 -21 -21 -20 -20 -20 -20 -20 -19 -19 -19 -19
-26 -26 -25 -25 -25 -25 -25 -25 -25 -25 -24 -24 -24 -24 -24 -24 -24 -24 -24 -24 -24 -24 -24 -23 -22 -21 -22 -22 -22 -22 -21 -21 -22 -21 -21 -21 -20 -20 -19 -19 -19 -19 -19 -18
-25 -25 -25 -25 -25 -25 -25 -24 -24 -24 -24 -24 -24 -24 -24 -24 -24 -24 -24 -24 -24 -24 -24 -23 -22 -22 -22 -22 -22 -22 -22 -22 -21 -21 -21 -21 -21 -20 -19 -19 -19 -19 -19 -19
-26 -26 -25 -25 -25 -25 -25 -25 -25 -24 -24 -24 -24 -24 -23 -23 -24 -24 -24 -24 -23 -23 -23 -22 -21 -21 -21 -22 -21 -22 -22 -22 -21 -21 -21 -20 -20 -20 -19 -19 -19 -19 -19 -19
-25 -25 -25 -25 -25 -25 -25 -24 -24 -24 -24 -24 -24 -24 -24 -24 -24 -24 -23 -23 -23 -23 -23 -22 -22 -21 -21 -22 -22 -21 -22 -22 -22 -21 -21 -21 -20 -20 -20 -20 -20 -20 -19 -19
-26 -25 -25 -25 -24 -24 -24 -24 -24 -23 -24 -24 -24 -24 -25 -25 -24 -24 -23 -23 -23 -23 -22 -22 -22 -22 -22 -22 -23 -23 -22 -22 -21 -21 -21 -21 -21 -20 -20 -20 -20 -20 -20 -20
-25 -25 -24 -24 -24 -24 -24 -23 -23 -24 -24 -24 -24 -24 -25 -24 -24 -24 -23 -23 -23 -23 -22 -22 -22 -22 -22 -22 -22 -22 -22 -22 -21 -21 -21 -21 -21 -20 -20 -21 -21 -21 -21 -21